Skip Page Navigation
NASA JPL Caltech
NASA Logo - Jet Propulsion Laboratory + View the NASA Portal
+ Near-Earth Object (NEO) Program
Search JPL
JPL Home Earth Solar System Stars & Galaxies Technology
JPL Solar System Dynamics
BODIES ORBITS EPHEMERIDES TOOLS PHYSICAL DATA DISCOVERY FAQ SITE MAP
JPL Small-Body Database Browser
Search: [ help ]  
(2011 QD48)
Classification: Apollo [NEO, PHA]          SPK-ID: 3577066
Ephemeris | Orbit Diagram | Orbital Elements | Physical Parameters | Close-Approach Data ]

[ hide orbit diagram ]
Orbit Diagram
Note: Make sure you have Java enabled on your browser to see the applet. This applet is provided as a 3D orbit visualization tool. The applet was implemented using 2-body methods, and hence should not be used for determining accurate long-term trajectories (over several years or decades) or planetary encounter circumstances. For accurate long-term ephemerides, please instead use our Horizons system.
Orbit Viewer

Additional Notes: the orbits shown in the applet are color coded. The planets are white lines, and the asteroid/comet is a blue line. The bright white line indicates the portion of the orbit that is above the ecliptic plane, and the darker portion is below the ecliptic plane. Likewise for the asteroid/comet orbit, the light blue indicates the portion above the ecliptic plane, and the dark blue the portion below the ecliptic plane.

Orbit Viewer applet originally written and kindly provided by Osamu Ajiki (AstroArts), and further modified by Ron Baalke (JPL).


Orbital Elements at Epoch 2456400.5 (2013-Apr-18.0) TDB
Reference: JPL 59 (heliocentric ecliptic J2000)
 Element Value Uncertainty (1-sigma)   Units 
e .4921981173670313 1.3046e-06  
a 1.545313731717478 3.0706e-06 AU
q .7847132222247136 4.8164e-07 AU
i 19.06494383626376 4.7434e-05 deg
node 358.9195599221974 4.2113e-05 deg
peri 106.644644943117 2.7416e-05 deg
M 221.7186366580869 0.00067241 deg
tp 2456670.016013636047
(2014-Jan-12.51601364)
0.0021138 JED
period 701.6546739496063
1.92
0.0020913
5.726e-06
d
yr
n .5130729023346542 1.5292e-06 deg/d
Q 2.305914241210242 4.5819e-06 AU
  Orbit Determination Parameters
   # obs. used (total)      325  
   data-arc span      279 days  
   first obs. used      2011-08-30  
   last obs. used      2012-06-04  
   planetary ephem.      DE405  
   SB-pert. ephem.      SB405-CPV-2  
   condition code      2  
   fit RMS      .3108  
   data source      ORB  
   producer      Otto Matic  
   solution date      2012-Aug-04 00:51:50  

Additional Information
 Earth MOID = .0192576 AU 
 T_jup = 4.264 
[ show covariance matrix ]

Ephemeris | Orbit Diagram | Orbital Elements | Physical Parameters | Close-Approach Data ]

Physical Parameter Table
Parameter Symbol Value Units Sigma Reference Notes
absolute magnitude H 18.157 mag .35977 59 autocmod 2.5b

[ show close-approach data ]
Ephemeris | Orbit Diagram | Orbital Elements | Physical Parameters | Close-Approach Data ]
ABOUT SSD CREDITS/AWARDS PRIVACY/COPYRIGHT GLOSSARY LINKS
FirstGov 2013-May-26 04:58 UT
(server date/time)  
NASA Home Page
Site Manager:   Donald K. Yeomans
Webmaster  Alan B. Chamberlin